Weather History for Longville, MN

Change the Weather History Date:

Thursday, March 7, 2013

  Actual Average (KPWC) Record (KPWC)
Temperature  
Mean Temperature 12 °F -  
Max Temperature 32 °F 27 °F 37 °F (2006)
Min Temperature -9 °F 8 °F -25 °F (2008)
Degree Days  
Heating Degree Days 54    
Moisture  
Dew Point 4 °F    
Average Humidity 68    
Maximum Humidity 92    
Minimum Humidity 47    
Precipitation  
Precipitation 0.00 in - - ()
Sea Level Pressure  
Sea Level Pressure 30.29 in    
Wind  
Wind Speed 3 mph (SE)    
Max Wind Speed 14 mph    
Max Gust Speed 20 mph    
Visibility 10 miles    
Events      
Averages and records for this station are not official NWS values.
T = Trace of Precipitation, MM = Missing Value Source: NWS Daily Summary

Daily Weather History Graph

Daily Weather History Graph

Search for Another Location

Airport:

Trip Planner

Search our weather history database for the weather conditions in past years. The results will help you decide how hot, cold, wet, or windy it might be!

Date:

Astronomy

Mar. 07, 2013 Rise Set
Actual Time 6:44 AM CST 6:11 PM CST
Civil Twilight 6:14 AM CST 6:41 PM CST
Nautical Twilight 5:39 AM CST 7:17 PM CST
Astronomical Twilight 5:03 AM CST 7:52 PM CST
Moon 3:59 AM CST (3/7) 1:47 PM CST (3/7)
Length of Visible Light 12h 27m
Length of Day
11h 26m
Waning Crescent, 20% of the Moon is Illuminated
Mar 7
Waning Crescent
Mar 11
New
Mar 19
First Quarter
Mar 27
Full
Apr 2
Last Quarter

Hourly Weather History & Observations

Time (CST) Temp. Windchill Dew Point Humidity Pressure Visibility Wind Dir Wind Speed Gust Speed Precip Events Conditions
12:16 AM -2.2 °F - -5.8 °F 85% 30.32 in 10.0 mi Calm Calm - N/A   Clear
12:36 AM -2.2 °F - -5.8 °F 85% 30.31 in 10.0 mi Calm Calm - N/A   Clear
12:56 AM -2.2 °F - -5.8 °F 85% 30.32 in 10.0 mi Calm Calm - N/A   Clear
1:16 AM -4.0 °F - -7.6 °F 85% 30.31 in 10.0 mi Calm Calm - N/A   Clear
1:36 AM -4.0 °F - -7.6 °F 85% 30.32 in 10.0 mi Calm Calm - N/A   Clear
1:56 AM -5.8 °F - -9.4 °F 84% 30.33 in 10.0 mi Calm Calm - N/A   Clear
2:16 AM -5.8 °F - -9.4 °F 84% 30.33 in 10.0 mi Calm Calm - N/A   Clear
2:36 AM -7.6 °F - -9.4 °F 92% 30.32 in 10.0 mi Calm Calm - N/A   Clear
2:56 AM -5.8 °F - -9.4 °F 84% 30.32 in 10.0 mi Calm Calm - N/A   Clear
3:16 AM -5.8 °F - -9.4 °F 84% 30.33 in 10.0 mi Calm Calm - N/A   Clear
3:36 AM -7.6 °F - -11.2 °F 84% 30.33 in 10.0 mi Calm Calm - N/A   Clear
3:56 AM -7.6 °F - -13.0 °F 77% 30.32 in 10.0 mi Calm Calm - N/A   Clear
4:16 AM -9.4 °F - -13.0 °F 84% 30.32 in 10.0 mi Calm Calm - N/A   Clear
4:56 AM -9.4 °F - -14.8 °F 77% 30.33 in 10.0 mi Calm Calm - N/A   Clear
5:16 AM -9.4 °F - -14.8 °F 77% 30.32 in 10.0 mi Calm Calm - N/A   Clear
5:36 AM -9.4 °F - -14.8 °F 77% 30.32 in 10.0 mi Calm Calm - N/A   Clear
5:56 AM -9.4 °F - -14.8 °F 77% 30.32 in 10.0 mi Calm Calm - N/A   Clear
6:16 AM -9.4 °F - -14.8 °F 77% 30.33 in 10.0 mi Calm Calm - N/A   Clear
6:36 AM -9.4 °F - -14.8 °F 77% 30.32 in 10.0 mi Calm Calm - N/A   Clear
6:56 AM -9.4 °F - -14.8 °F 77% 30.32 in 10.0 mi Calm Calm - N/A   Clear
7:16 AM -7.6 °F - -11.2 °F 84% 30.32 in 10.0 mi Calm Calm - N/A   Clear
7:36 AM -7.6 °F - -9.4 °F 92% 30.32 in 10.0 mi Calm Calm - N/A   Clear
7:56 AM -2.2 °F - -5.8 °F 85% 30.33 in 7.0 mi Calm Calm - N/A   Clear
8:16 AM 1.4 °F - -2.2 °F 85% 30.33 in 10.0 mi Calm Calm - N/A   Clear
8:36 AM 6.8 °F - 3.2 °F 85% 30.33 in 10.0 mi Calm Calm - N/A   Clear
8:56 AM 12.2 °F 6.1 °F 8.6 °F 85% 30.33 in 10.0 mi SE 3.5 mph - N/A   Clear
9:16 AM 15.8 °F 6.1 °F 10.4 °F 79% 30.33 in 10.0 mi SE 6.9 mph - N/A   Clear
9:36 AM 17.6 °F 7.3 °F 12.2 °F 79% 30.33 in 10.0 mi SE 8.1 mph - N/A   Clear
9:56 AM 19.4 °F 10.4 °F 12.2 °F 74% 30.33 in 10.0 mi SE 6.9 mph 10.4 mph N/A   Clear
10:16 AM 23.0 °F 13.1 °F 12.2 °F 63% 30.32 in 10.0 mi SE 9.2 mph - N/A   Clear
10:36 AM 24.8 °F 12.9 °F 12.2 °F 59% 30.33 in 10.0 mi SSE 13.8 mph 18.4 mph N/A   Clear
10:56 AM 24.8 °F 13.4 °F 12.2 °F 59% 30.33 in 10.0 mi SSE 12.7 mph 19.6 mph N/A   Clear
11:16 AM 24.8 °F 15.3 °F 14.0 °F 64% 30.32 in 10.0 mi SSE 9.2 mph - N/A   Clear
11:36 AM 26.6 °F 18.2 °F 14.0 °F 59% 30.32 in 10.0 mi SE 8.1 mph - N/A   Clear
11:56 AM 28.4 °F 19.7 °F 14.0 °F 55% 30.30 in 10.0 mi East 9.2 mph - N/A   Clear
12:16 PM 28.4 °F 20.4 °F 12.2 °F 51% 30.29 in 10.0 mi ESE 8.1 mph - N/A   Clear
12:36 PM 28.4 °F 22.2 °F 14.0 °F 55% 30.29 in 10.0 mi ESE 5.8 mph - N/A   Clear
12:56 PM 28.4 °F 20.4 °F 14.0 °F 55% 30.29 in 10.0 mi SSE 8.1 mph - N/A   Clear
1:16 PM 30.2 °F 22.6 °F 14.0 °F 51% 30.28 in 10.0 mi SE 8.1 mph - N/A   Clear
1:36 PM 30.2 °F 22.6 °F 14.0 °F 51% 30.27 in 10.0 mi ESE 8.1 mph - N/A   Clear
1:56 PM 30.2 °F 23.4 °F 12.2 °F 47% 30.26 in 10.0 mi SSE 6.9 mph 17.3 mph N/A   Clear
2:16 PM 30.2 °F 22.6 °F 12.2 °F 47% 30.26 in 10.0 mi SE 8.1 mph - N/A   Clear
2:36 PM 30.2 °F 23.4 °F 14.0 °F 51% 30.26 in 10.0 mi SE 6.9 mph - N/A   Clear
2:56 PM 30.2 °F 20.2 °F 14.0 °F 51% 30.25 in 10.0 mi SSE 12.7 mph 17.3 mph N/A   Clear
3:16 PM 30.2 °F 21.9 °F 14.0 °F 51% 30.25 in 10.0 mi SE 9.2 mph - N/A   Scattered Clouds
3:36 PM 30.2 °F 21.3 °F 14.0 °F 51% 30.25 in 10.0 mi SE 10.4 mph - N/A   Clear
3:56 PM 30.2 °F 21.3 °F 14.0 °F 51% 30.24 in 10.0 mi SE 10.4 mph - N/A   Clear
4:16 PM 32.0 °F 22.1 °F 15.8 °F 51% 30.23 in 10.0 mi SE 13.8 mph 17.3 mph N/A   Clear
4:36 PM 30.2 °F 21.9 °F 14.0 °F 51% 30.23 in 10.0 mi SE 9.2 mph - N/A   Clear
4:56 PM 30.2 °F 22.6 °F 14.0 °F 51% 30.23 in 10.0 mi SE 8.1 mph - N/A   Clear
5:16 PM 30.2 °F 23.4 °F 15.8 °F 55% 30.23 in 10.0 mi SE 6.9 mph - N/A   Clear
5:36 PM 30.2 °F 21.9 °F 14.0 °F 51% 30.23 in 10.0 mi SE 9.2 mph 16.1 mph N/A   Clear
5:56 PM 28.4 °F 24.6 °F 14.0 °F 55% 30.23 in 10.0 mi ESE 3.5 mph - N/A   Clear
7:36 PM 24.8 °F - 12.2 °F 59% 30.23 in 10.0 mi Calm Calm - N/A   Clear
8:16 PM 23.0 °F 18.4 °F 12.2 °F 63% 30.23 in 10.0 mi SE 3.5 mph - N/A   Clear
8:36 PM 23.0 °F - 12.2 °F 63% 30.23 in 10.0 mi Calm Calm - N/A   Clear
8:56 PM 21.2 °F 14.9 °F 12.2 °F 68% 30.23 in 10.0 mi SE 4.6 mph - N/A   Clear
9:16 PM 23.0 °F 14.7 °F 12.2 °F 63% 30.23 in 10.0 mi SE 6.9 mph - N/A   Clear
9:36 PM 23.0 °F 15.8 °F 12.2 °F 63% 30.24 in 10.0 mi SSE 5.8 mph - N/A   Clear
9:56 PM 23.0 °F 13.9 °F 12.2 °F 63% 30.24 in 10.0 mi SSE 8.1 mph - N/A   Clear
10:16 PM 23.0 °F 13.9 °F 12.2 °F 63% 30.24 in 10.0 mi SSE 8.1 mph - N/A   Clear
10:36 PM 23.0 °F 14.7 °F 12.2 °F 63% 30.24 in 10.0 mi SSE 6.9 mph - N/A   Clear
10:56 PM 23.0 °F 12.4 °F 12.2 °F 63% 30.24 in 10.0 mi SE 10.4 mph - N/A   Clear
11:16 PM 23.0 °F 13.9 °F 12.2 °F 63% 30.24 in 10.0 mi SE 8.1 mph - N/A   Clear
11:36 PM 21.2 °F 11.7 °F 12.2 °F 68% 30.24 in 10.0 mi SE 8.1 mph - N/A   Clear
11:56 PM 21.2 °F - 12.2 °F 68% 30.24 in 10.0 mi Calm Calm - N/A   Clear